Clinton, AR

6:48 AM CST on December 04, 2016 (GMT -0600)
Clinton

Weather History for KCCA - October, 2013

Change the Weather History Date:

Thursday, October 24, 2013

  Actual Average (KBVX) Record (KBVX)
Temperature  
Mean Temperature 48 °F -  
Max Temperature 59 °F 68 °F 84 °F (1963)
Min Temperature 37 °F 47 °F 24 °F (1981)
Degree Days  
Heating Degree Days 17    
Moisture  
Dew Point 39 °F    
Average Humidity 76    
Maximum Humidity 100    
Minimum Humidity 42    
Precipitation  
Precipitation 0.00 in - - ()
Sea Level Pressure  
Sea Level Pressure 30.26 in    
Wind  
Wind Speed 1 mph (NNW)    
Max Wind Speed 10 mph    
Max Gust Speed 18 mph    
Visibility 10 miles    
Events      
Averages and records for this station are not official NWS values.
T = Trace of Precipitation, MM = Missing Value Source: NWS Daily Summary

Daily Weather History Graph

Daily Weather History Graph

Search for Another Location

Airport or City:

Trip Planner

Search our weather history database for the weather conditions in past years. The results will help you decide how hot, cold, wet, or windy it might be!

Date:

Astronomy

Oct. 24, 2013 Rise Set
Actual Time 7:24 AM CDT 6:22 PM CDT
Civil Twilight 6:58 AM CDT 6:48 PM CDT
Nautical Twilight 6:28 AM CDT 7:18 PM CDT
Astronomical Twilight 5:58 AM CDT 7:48 PM CDT
Moon 10:51 PM CDT (10/24) 12:21 PM CDT (10/24)
Length of Visible Light 11h 50m
Length of Day
10h 58m
Waning Gibbous, 71% of the Moon is Illuminated
Oct 24
Waning Gibbous
Oct 26
Last Quarter
Nov 3
New
Nov 9
First Quarter
Nov 17
Full

Hourly Weather History & Observations

Time (CDT) Temp. Dew Point Humidity Pressure Visibility Wind Dir Wind Speed Gust Speed Precip Events Conditions
12:15 AM 42.8 °F 42.8 °F 100% 30.12 in 10.0 mi Calm Calm - N/A   Partly Cloudy
12:35 AM 42.8 °F 42.8 °F 100% 30.12 in 10.0 mi Calm Calm - N/A   Scattered Clouds
12:55 AM 42.8 °F 41.0 °F 93% 30.12 in 10.0 mi Calm Calm - N/A   Scattered Clouds
1:15 AM 42.8 °F 41.0 °F 93% 30.13 in 10.0 mi Calm Calm - N/A   Partly Cloudy
1:35 AM 42.8 °F 41.0 °F 93% 30.13 in 10.0 mi Calm Calm - N/A   Clear
1:55 AM 42.8 °F 41.0 °F 93% 30.13 in 10.0 mi Calm Calm - N/A   Clear
2:15 AM 41.0 °F 39.2 °F 93% 30.13 in 10.0 mi Calm Calm - N/A   Clear
2:35 AM 41.0 °F 39.2 °F 93% 30.13 in 10.0 mi Calm Calm - N/A   Clear
2:55 AM 41.0 °F 39.2 °F 93% 30.13 in 10.0 mi Calm Calm - N/A   Clear
3:15 AM 39.2 °F 39.2 °F 100% 30.13 in 10.0 mi Calm Calm - N/A   Clear
3:35 AM 39.2 °F 39.2 °F 100% 30.12 in 10.0 mi Calm Calm - N/A   Clear
3:55 AM 39.2 °F 39.2 °F 100% 30.12 in 10.0 mi Calm Calm - N/A   Clear
4:15 AM 39.2 °F 39.2 °F 100% 30.12 in 9.0 mi Calm Calm - N/A   Clear
4:35 AM 39.2 °F 39.2 °F 100% 30.12 in 8.0 mi Calm Calm - N/A   Clear
4:55 AM 39.2 °F 39.2 °F 100% 30.12 in 9.0 mi Calm Calm - N/A   Clear
5:15 AM 39.2 °F 37.4 °F 93% 30.12 in 9.0 mi Calm Calm - N/A   Clear
5:35 AM 39.2 °F 37.4 °F 93% 30.13 in 10.0 mi Calm Calm - N/A   Clear
5:55 AM 39.2 °F 37.4 °F 93% 30.15 in 9.0 mi Calm Calm - N/A   Partly Cloudy
6:15 AM 39.2 °F 37.4 °F 93% 30.15 in 9.0 mi Calm Calm - N/A   Clear
6:35 AM 39.2 °F 37.4 °F 93% 30.16 in 8.0 mi Calm Calm - N/A   Clear
6:55 AM 37.4 °F 37.4 °F 100% 30.17 in 9.0 mi Calm Calm - N/A   Clear
7:15 AM 39.2 °F 37.4 °F 93% 30.18 in 8.0 mi Calm Calm - N/A   Clear
7:35 AM 39.2 °F 37.4 °F 93% 30.20 in 8.0 mi Calm Calm - N/A   Clear
7:55 AM 39.2 °F 39.2 °F 100% 30.21 in 9.0 mi Calm Calm - N/A   Clear
8:15 AM 41.0 °F 41.0 °F 100% 30.22 in 8.0 mi Calm Calm - N/A   Clear
8:35 AM 44.6 °F 44.6 °F 100% 30.24 in 10.0 mi Calm Calm - N/A   Clear
8:55 AM 48.2 °F 42.8 °F 82% 30.26 in 10.0 mi Calm Calm - N/A   Clear
9:15 AM 51.8 °F 42.8 °F 71% 30.27 in 10.0 mi Calm Calm - N/A   Clear
9:35 AM 53.6 °F 42.8 °F 67% 30.27 in 10.0 mi North 5.8 mph - N/A   Clear
9:55 AM 53.6 °F 39.2 °F 58% 30.27 in 10.0 mi NW 5.8 mph - N/A   Clear
10:15 AM 53.6 °F 39.2 °F 58% 30.28 in 10.0 mi North 4.6 mph - N/A   Clear
10:35 AM 55.4 °F 37.4 °F 51% 30.28 in 10.0 mi NW 6.9 mph - N/A   Clear
10:55 AM 55.4 °F 37.4 °F 51% 30.28 in 10.0 mi NE 5.8 mph - N/A   Clear
11:15 AM 55.4 °F 37.4 °F 51% 30.29 in 10.0 mi North 4.6 mph - N/A   Clear
11:35 AM 57.2 °F 37.4 °F 48% 30.29 in 10.0 mi NW 5.8 mph - N/A   Clear
11:55 AM 57.2 °F 37.4 °F 48% 30.28 in 10.0 mi NW 5.8 mph - N/A   Clear
12:15 PM 57.2 °F 37.4 °F 48% 30.29 in 10.0 mi North 4.6 mph - N/A   Clear
12:35 PM 57.2 °F 39.2 °F 51% 30.29 in 10.0 mi NW 9.2 mph - N/A   Clear
12:55 PM 59.0 °F 39.2 °F 48% 30.28 in 10.0 mi NNW 4.6 mph - N/A   Clear
1:15 PM 59.0 °F 39.2 °F 48% 30.27 in 10.0 mi North 4.6 mph - N/A   Clear
1:35 PM 57.2 °F 39.2 °F 51% 30.27 in 10.0 mi NNW 5.8 mph - N/A   Clear
1:55 PM 59.0 °F 39.2 °F 48% 30.27 in 10.0 mi NW 10.4 mph - N/A   Clear
2:15 PM 59.0 °F 39.2 °F 48% 30.27 in 10.0 mi NW 9.2 mph 18.4 mph N/A   Clear
2:35 PM 59.0 °F 37.4 °F 45% 30.28 in 10.0 mi NNW 5.8 mph - N/A   Clear
2:55 PM 57.2 °F 37.4 °F 48% 30.28 in 10.0 mi NNW 6.9 mph - N/A   Clear
3:15 PM 59.0 °F 37.4 °F 45% 30.28 in 10.0 mi WNW 9.2 mph - N/A   Clear
3:35 PM 59.0 °F 37.4 °F 45% 30.27 in 10.0 mi North 4.6 mph - N/A   Clear
3:55 PM 59.0 °F 35.6 °F 42% 30.28 in 10.0 mi NNW 8.1 mph - N/A   Clear
4:15 PM 59.0 °F 35.6 °F 42% 30.28 in 10.0 mi NW 9.2 mph - N/A   Clear
4:35 PM 59.0 °F 35.6 °F 42% 30.28 in 10.0 mi North 4.6 mph - N/A   Clear
4:55 PM 57.2 °F 35.6 °F 44% 30.29 in 10.0 mi North 4.6 mph - N/A   Clear
5:15 PM 57.2 °F 35.6 °F 44% 30.29 in 10.0 mi NNE 3.5 mph - N/A   Clear
5:35 PM 57.2 °F 35.6 °F 44% 30.29 in 10.0 mi Calm Calm - N/A   Clear
5:55 PM 55.4 °F 35.6 °F 47% 30.30 in 10.0 mi North 3.5 mph - N/A   Clear
6:15 PM 53.6 °F 37.4 °F 54% 30.31 in 10.0 mi Calm Calm - N/A   Clear
6:35 PM 50.0 °F 39.2 °F 66% 30.32 in 10.0 mi Calm Calm - N/A   Clear
6:55 PM 48.2 °F 39.2 °F 71% 30.32 in 10.0 mi Calm Calm - N/A   Clear
7:15 PM 46.4 °F 39.2 °F 76% 30.33 in 10.0 mi Calm Calm - N/A   Clear
7:35 PM 44.6 °F 41.0 °F 87% 30.34 in 10.0 mi Calm Calm - N/A   Clear
7:55 PM 44.6 °F 39.2 °F 81% 30.35 in 10.0 mi Calm Calm - N/A   Clear
8:15 PM 42.8 °F 39.2 °F 87% 30.36 in 10.0 mi Calm Calm - N/A   Clear
8:35 PM 42.8 °F 39.2 °F 87% 30.37 in 10.0 mi Calm Calm - N/A   Clear
8:55 PM 42.8 °F 39.2 °F 87% 30.38 in 10.0 mi Calm Calm - N/A   Clear
9:15 PM 41.0 °F 39.2 °F 93% 30.38 in 10.0 mi Calm Calm - N/A   Clear
9:35 PM 39.2 °F 37.4 °F 93% 30.39 in 10.0 mi Calm Calm - N/A   Clear
9:55 PM 39.2 °F 37.4 °F 93% 30.40 in 10.0 mi Calm Calm - N/A   Clear
10:15 PM 39.2 °F 37.4 °F 93% 30.41 in 10.0 mi Calm Calm - N/A   Clear
10:35 PM 39.2 °F 37.4 °F 93% 30.41 in 10.0 mi Calm Calm - N/A   Clear
10:55 PM 39.2 °F 37.4 °F 93% 30.42 in 9.0 mi Calm Calm - N/A   Clear
11:15 PM 39.2 °F 37.4 °F 93% 30.42 in 9.0 mi Calm Calm - N/A   Clear
11:35 PM 37.4 °F 37.4 °F 100% 30.43 in 10.0 mi Calm Calm - N/A   Clear
11:55 PM 37.4 °F 35.6 °F 93% 30.43 in 10.0 mi Calm Calm - N/A   Clear